Retour au catalogue

STARLINK-33596

ActifCommunicationsVLEO
NORAD 62758·PAYLOAD·🇺🇸 United States

Lancé Jan 21, 2025 depuis Vandenberg Space Force Base

Loading…

Prochains Passages (prochaines 24 heures)

TLE

FraisSource: CelesTrak SupGP

Époque: Sep 14, 2026, 22:52 UTC

1 62758C 25015A   26257.95326389 -.00050474  00000+0 -16229-2 0  2578
2 62758  53.1581 162.1010 0001202  68.7697  11.0898 15.31732152    10

Suivez STARLINK-33596 en temps réel avec AllMySat

Download on the App Store